Weather History for North Island, CA

Change the Weather History Date:

Saturday, February 2, 2013

  Actual Average Record
Temperature  
Mean Temperature 66 °F -  
Max Temperature 77 °F 61 °F 82 °F (2000)
Min Temperature 54 °F 48 °F 43 °F (2002)
Growing Degree Days 16 (Base 50)    
Moisture  
Dew Point 47 °F    
Average Humidity 59    
Maximum Humidity 75    
Minimum Humidity 24    
Precipitation  
Precipitation 0.00 in - - ()
Sea Level Pressure  
Sea Level Pressure 30.14 in    
Wind  
Wind Speed 3 mph (NNW)    
Max Wind Speed 15 mph    
Max Gust Speed -    
Visibility 9 miles    
Events Rain    
Averages and records for this station are not official NWS values.
T = Trace of Precipitation, MM = Missing Value Source: NWS Daily Summary

Daily Weather History Graph

Daily Weather History Graph

Search for Another Location

Airport:

Trip Planner

Search our weather history database for the weather conditions in past years. The results will help you decide how hot, cold, wet, or windy it might be!

Date:

Astronomy

Feb. 02, 2013 Rise Set
Actual Time 6:42 AM PST 5:22 PM PST
Civil Twilight 6:16 AM PST 5:48 PM PST
Nautical Twilight 5:47 AM PST 6:18 PM PST
Astronomical Twilight 5:18 AM PST 6:47 PM PST
Moon No Moon Rise 10:21 AM PST (2/2)
Length of Visible Light 11h 31m
Length of Day
10h 40m
Waning Gibbous, 58% of the Moon is Illuminated
Feb 2
Waning Gibbous
Feb 3
Last Quarter
Feb 9
New
Feb 17
First Quarter
Feb 25
Full

Hourly Weather History & Observations

Time (PST) Temp. Dew Point Humidity Pressure Visibility Wind Dir Wind Speed Gust Speed Precip Events Conditions
12:52 AM 57.0 °F 46.0 °F 67% 30.15 in 9.0 mi Calm Calm - N/A   Mostly Cloudy
1:52 AM 57.0 °F 48.0 °F 72% 30.15 in 8.0 mi Calm Calm - N/A   Scattered Clouds
2:52 AM 55.9 °F 46.0 °F 69% 30.15 in 8.0 mi Calm Calm - N/A   Mostly Cloudy
3:52 AM 54.0 °F 45.0 °F 72% 30.15 in 8.0 mi Calm Calm - N/A   Mostly Cloudy
4:52 AM 55.9 °F 46.9 °F 72% 30.14 in 9.0 mi Calm Calm - N/A   Mostly Cloudy
5:52 AM 54.0 °F 46.0 °F 75% 30.14 in 9.0 mi Calm Calm - N/A   Mostly Cloudy
6:52 AM 54.0 °F 46.0 °F 75% 30.16 in 9.0 mi Calm Calm - N/A   Mostly Cloudy
7:52 AM 57.0 °F 48.0 °F 72% 30.17 in 9.0 mi Calm Calm - N/A   Mostly Cloudy
8:52 AM 62.1 °F 46.9 °F 58% 30.17 in 9.0 mi Calm Calm - N/A   Mostly Cloudy
9:52 AM 69.1 °F 42.1 °F 38% 30.17 in 10.0 mi Calm Calm - N/A   Mostly Cloudy
10:52 AM 73.9 °F 39.9 °F 29% 30.16 in 10.0 mi NW 4.6 mph - N/A   Mostly Cloudy
11:52 AM 77.0 °F 37.9 °F 24% 30.13 in 10.0 mi NNW 8.1 mph - N/A   Mostly Cloudy
12:52 PM 71.1 °F 45.0 °F 39% 30.10 in 10.0 mi NNW 10.4 mph - N/A   Mostly Cloudy
1:52 PM 66.9 °F 48.0 °F 51% 30.09 in 10.0 mi NNW 15.0 mph - N/A   Mostly Cloudy
2:52 PM 69.1 °F 45.0 °F 42% 30.08 in 8.0 mi NNW 9.2 mph - N/A   Mostly Cloudy
3:52 PM 69.1 °F 45.0 °F 42% 30.09 in 8.0 mi NW 4.6 mph - N/A   Overcast
4:52 PM 66.0 °F 45.0 °F 47% 30.11 in 8.0 mi NNW 9.2 mph - N/A   Overcast
5:52 PM 64.0 °F 50.0 °F 60% 30.12 in 8.0 mi NNW 9.2 mph - N/A   Overcast
6:52 PM 63.0 °F 51.1 °F 65% 30.15 in 7.0 mi NNW 8.1 mph - N/A   Overcast
7:52 PM 63.0 °F 50.0 °F 63% 30.16 in 8.0 mi North 4.6 mph - N/A   Mostly Cloudy
8:25 PM 62.6 °F 50.0 °F 63% 30.15 in 8.0 mi North 3.5 mph - 0.00 in Rain Light Rain
8:44 PM 62.6 °F 51.8 °F 68% 30.15 in 10.0 mi Calm Calm - 0.00 in   Mostly Cloudy
8:52 PM 63.0 °F 51.1 °F 65% 30.15 in 10.0 mi Calm Calm - 0.00 in   Mostly Cloudy
9:52 PM 63.0 °F 50.0 °F 63% 30.14 in 10.0 mi NNW 4.6 mph - N/A   Overcast
10:27 PM 62.6 °F 51.8 °F 68% 30.13 in 8.0 mi North 6.9 mph - 0.00 in Rain Light Rain
10:52 PM 62.1 °F 51.1 °F 67% 30.13 in 9.0 mi NNW 5.8 mph - 0.00 in Rain Light Rain
11:34 PM 62.6 °F 51.8 °F 68% 30.12 in 10.0 mi North 6.9 mph - 0.00 in   Overcast
11:52 PM 63.0 °F 52.0 °F 67% 30.12 in 10.0 mi North 5.8 mph - 0.00 in   Overcast